Tignall, GA

2:06 PM EST on February 06, 2016 (GMT -0500)
Washington-Wilkes County

Weather History for KIIY - October, 2012

Change the Weather History Date:

Tuesday, October 9, 2012

  Actual Average (KDBN) Record (KDBN)
Temperature  
Mean Temperature 58 °F -  
Max Temperature 69 °F 80 °F 91 °F (1941)
Min Temperature 48 °F 54 °F 36 °F (1978)
Degree Days  
Heating Degree Days 6    
Growing Degree Days 8 (Base 50)    
Moisture  
Dew Point 48 °F    
Average Humidity 73    
Maximum Humidity 100    
Minimum Humidity 40    
Precipitation  
Precipitation 0.00 in - - ()
Sea Level Pressure  
Sea Level Pressure 30.13 in    
Wind  
Wind Speed 4 mph ()    
Max Wind Speed 9 mph    
Max Gust Speed -    
Visibility 9.9 miles    
Events      
Averages and records for this station are not official NWS values.
T = Trace of Precipitation, MM = Missing Value Source: Averaged Metar Reports

Daily Weather History Graph

Daily Weather History Graph

Search for Another Location

Airport or City:

Trip Planner

Search our weather history database for the weather conditions in past years. The results will help you decide how hot, cold, wet, or windy it might be!

Date:

Astronomy

Oct. 09, 2012 Rise Set
Actual Time 7:31 AM EDT 7:04 PM EDT
Civil Twilight 7:06 AM EDT 7:29 PM EDT
Nautical Twilight 6:38 AM EDT 7:58 PM EDT
Astronomical Twilight 6:09 AM EDT 8:27 PM EDT
Moon 1:23 AM EDT (10/9) 3:15 PM EDT (10/9)
Length of Visible Light 12h 22m
Length of Day
11h 32m
Last Quarter, 37% of the Moon is Illuminated
Oct 9
Last Quarter
Oct 15
New
Oct 21
First Quarter
Oct 29
Full
Nov 6
Last Quarter

Hourly Weather History & Observations

Time (EDT) Temp. Dew Point Humidity Pressure Visibility Wind Dir Wind Speed Gust Speed Precip Events Conditions
12:35 AM 53.6 °F 50.0 °F 88% 30.15 in 10.0 mi NNE 4.6 mph - N/A   Overcast
12:55 AM 53.6 °F 51.8 °F 94% 30.14 in 10.0 mi NNE 4.6 mph - N/A   Overcast
1:15 AM 53.6 °F 51.8 °F 94% 30.14 in 10.0 mi North 3.5 mph - N/A   Overcast
1:35 AM 53.6 °F 51.8 °F 94% 30.14 in 10.0 mi North 3.5 mph - N/A   Overcast
1:55 AM 53.6 °F 51.8 °F 94% 30.14 in 7.0 mi North 3.5 mph - N/A   Overcast
2:15 AM 53.6 °F 51.8 °F 94% 30.14 in 10.0 mi NNE 3.5 mph - N/A   Overcast
2:55 AM 53.6 °F 51.8 °F 94% 30.14 in 7.0 mi NNE 3.5 mph - N/A   Overcast
3:15 AM 53.6 °F 51.8 °F 94% 30.14 in 7.0 mi Calm Calm - N/A   Overcast
3:35 AM 53.6 °F 51.8 °F 94% 30.13 in 10.0 mi North 3.5 mph - N/A   Overcast
4:15 AM 53.6 °F 51.8 °F 94% 30.13 in 10.0 mi Calm Calm - N/A   Overcast
4:35 AM 53.6 °F 51.8 °F 94% 30.13 in 10.0 mi NNE 3.5 mph - N/A   Overcast
4:55 AM 53.6 °F 51.8 °F 94% 30.13 in 10.0 mi Calm Calm - N/A   Overcast
5:15 AM 53.6 °F 51.8 °F 94% 30.13 in 10.0 mi Calm Calm - N/A   Overcast
5:35 AM 53.6 °F 51.8 °F 94% 30.13 in 10.0 mi Calm Calm - N/A   Overcast
5:55 AM 53.6 °F 51.8 °F 94% 30.13 in 10.0 mi Calm Calm - N/A   Overcast
6:15 AM 53.6 °F 51.8 °F 94% 30.14 in 10.0 mi Calm Calm - N/A   Overcast
6:35 AM 53.6 °F 51.8 °F 94% 30.14 in 10.0 mi Calm Calm - N/A   Overcast
6:55 AM 53.6 °F 51.8 °F 94% 30.15 in 10.0 mi NE 4.6 mph - N/A   Overcast
7:15 AM 53.6 °F 51.8 °F 94% 30.15 in 10.0 mi NE 4.6 mph - N/A   Overcast
7:35 AM 53.6 °F 51.8 °F 94% 30.15 in 10.0 mi NE 6.9 mph - N/A   Overcast
7:55 AM 53.6 °F 50.0 °F 88% 30.16 in 10.0 mi NE 5.8 mph - N/A   Overcast
8:15 AM 53.6 °F 50.0 °F 88% 30.16 in 10.0 mi ENE 4.6 mph - N/A   Overcast
8:35 AM 53.6 °F 50.0 °F 88% 30.17 in 10.0 mi NE 5.8 mph - N/A   Overcast
8:55 AM 53.6 °F 48.2 °F 82% 30.17 in 10.0 mi NE 6.9 mph - N/A   Overcast
9:15 AM 53.6 °F 46.4 °F 77% 30.18 in 10.0 mi NNE 6.9 mph - N/A   Overcast
9:35 AM 53.6 °F 46.4 °F 77% 30.17 in 10.0 mi NE 9.2 mph - N/A   Overcast
9:55 AM 53.6 °F 44.6 °F 72% 30.18 in 10.0 mi NE 3.5 mph - N/A   Mostly Cloudy
10:15 AM 55.4 °F 46.4 °F 72% 30.18 in 10.0 mi NNE 9.2 mph - N/A   Mostly Cloudy
10:35 AM 59.0 °F 46.4 °F 63% 30.19 in 10.0 mi NNE 5.8 mph - N/A   Mostly Cloudy
10:55 AM 59.0 °F 46.4 °F 63% 30.18 in 10.0 mi NNE 5.8 mph - N/A   Overcast
11:15 AM 59.0 °F 44.6 °F 59% 30.17 in 10.0 mi ENE 5.8 mph - N/A   Mostly Cloudy
11:35 AM 60.8 °F 44.6 °F 55% 30.17 in 10.0 mi NNE 4.6 mph - N/A   Mostly Cloudy
11:55 AM 60.8 °F 44.6 °F 55% 30.16 in 10.0 mi NNE 5.8 mph - N/A   Scattered Clouds
12:15 PM 62.6 °F 44.6 °F 52% 30.15 in 10.0 mi North 5.8 mph - N/A   Clear
12:35 PM 64.4 °F 44.6 °F 49% 30.14 in 10.0 mi NE 6.9 mph - N/A   Clear
12:55 PM 64.4 °F 44.6 °F 49% 30.14 in 10.0 mi NNE 6.9 mph - N/A   Clear
1:15 PM 64.4 °F 44.6 °F 49% 30.13 in 10.0 mi NNE 6.9 mph - N/A   Clear
1:35 PM 64.4 °F 44.6 °F 49% 30.13 in 10.0 mi NW 6.9 mph - N/A   Clear
1:55 PM 66.2 °F 44.6 °F 46% 30.12 in 10.0 mi NNW 6.9 mph - N/A   Clear
2:15 PM 68.0 °F 44.6 °F 43% 30.10 in 10.0 mi Calm Calm - N/A   Scattered Clouds
2:35 PM 66.2 °F 42.8 °F 43% 30.10 in 10.0 mi Calm Calm - N/A   Scattered Clouds
2:55 PM 66.2 °F 44.6 °F 46% 30.10 in 10.0 mi NNW 5.8 mph - N/A   Scattered Clouds
3:15 PM 68.0 °F 44.6 °F 43% 30.09 in 10.0 mi NNE 4.6 mph - N/A   Clear
3:35 PM 68.0 °F 44.6 °F 43% 30.09 in 10.0 mi North 3.5 mph - N/A   Scattered Clouds
3:55 PM 69.8 °F 44.6 °F 40% 30.09 in 10.0 mi North 3.5 mph - N/A   Clear
4:15 PM 66.2 °F 44.6 °F 46% 30.08 in 10.0 mi NNW 6.9 mph - N/A   Scattered Clouds
4:35 PM 68.0 °F 44.6 °F 43% 30.08 in 10.0 mi NW 4.6 mph - N/A   Scattered Clouds
4:55 PM 68.0 °F 44.6 °F 43% 30.07 in 10.0 mi North 4.6 mph - N/A   Clear
5:15 PM 68.0 °F 42.8 °F 40% 30.08 in 10.0 mi Calm Calm - N/A   Clear
5:35 PM 68.0 °F 44.6 °F 43% 30.08 in 10.0 mi NNE 5.8 mph - N/A   Clear
5:55 PM 64.4 °F 44.6 °F 49% 30.08 in 10.0 mi NE 4.6 mph - N/A   Clear
6:15 PM 64.4 °F 44.6 °F 49% 30.08 in 10.0 mi NE 4.6 mph - N/A   Clear
6:35 PM 64.4 °F 46.4 °F 52% 30.09 in 10.0 mi ENE 3.5 mph - N/A   Clear
6:55 PM 60.8 °F 46.4 °F 59% 30.09 in 10.0 mi NE 3.5 mph - N/A   Clear
7:15 PM 59.0 °F 46.4 °F 63% 30.09 in 10.0 mi East 4.6 mph - N/A   Clear
7:35 PM 59.0 °F 48.2 °F 67% 30.09 in 10.0 mi ENE 3.5 mph - N/A   Clear
7:55 PM 59.0 °F 50.0 °F 72% 30.09 in 10.0 mi ENE 3.5 mph - N/A   Clear
8:15 PM 55.4 °F 48.2 °F 77% 30.10 in 10.0 mi ENE 4.6 mph - N/A   Clear
8:35 PM 53.6 °F 46.4 °F 77% 30.10 in 10.0 mi ENE 5.8 mph - N/A   Clear
8:55 PM 53.6 °F 46.4 °F 77% 30.11 in 10.0 mi East 5.8 mph - N/A   Clear
9:15 PM 53.6 °F 46.4 °F 77% 30.11 in 10.0 mi ENE 4.6 mph - N/A   Clear
9:35 PM 53.6 °F 48.2 °F 82% 30.11 in 10.0 mi ENE 4.6 mph - N/A   Clear
9:55 PM 53.6 °F 50.0 °F 88% 30.11 in 10.0 mi East 3.5 mph - N/A   Clear
10:15 PM 53.6 °F 50.0 °F 88% 30.12 in 10.0 mi Calm Calm - N/A   Clear
10:35 PM 53.6 °F 50.0 °F 88% 30.12 in 10.0 mi ESE 3.5 mph - N/A   Clear
10:55 PM 51.8 °F 48.2 °F 88% 30.13 in 10.0 mi Calm Calm - N/A   Clear
11:15 PM 51.8 °F 50.0 °F 94% 30.13 in 10.0 mi East 3.5 mph - N/A   Clear
11:35 PM 48.2 °F 46.4 °F 93% 30.13 in 10.0 mi East 3.5 mph - N/A   Clear
11:55 PM 50.0 °F 50.0 °F 100% 30.13 in 10.0 mi Calm Calm - N/A   Clear